Weather History for KHBR - January, 2014

Change the Weather History Date:

Monday, January 6, 2014

  Actual Average Record
Temperature  
Mean Temperature 18 °F -  
Max Temperature 28 °F 47 °F 77 °F (2008)
Min Temperature 8 °F 26 °F 3 °F (2004)
Degree Days  
Heating Degree Days 47    
Moisture  
Dew Point 4 °F    
Average Humidity 58    
Maximum Humidity 84    
Minimum Humidity 34    
Precipitation  
Precipitation 0.00 in - - ()
Sea Level Pressure  
Sea Level Pressure 30.65 in    
Wind  
Wind Speed 8 mph (West)    
Max Wind Speed 15 mph    
Max Gust Speed -    
Visibility 10 miles    
Events      
Averages and records for this station are not official NWS values.
T = Trace of Precipitation, MM = Missing Value Source: NWS Daily Summary

Daily Weather History Graph

Daily Weather History Graph

Search for Another Location

Airport or City:

Trip Planner

Search our weather history database for the weather conditions in past years. The results will help you decide how hot, cold, wet, or windy it might be!

Date:

Astronomy

Jan. 06, 2014 Rise Set
Actual Time 7:44 AM CST 5:39 PM CST
Civil Twilight 7:16 AM CST 6:07 PM CST
Nautical Twilight 6:45 AM CST 6:39 PM CST
Astronomical Twilight 6:14 AM CST 7:09 PM CST
Moon 11:15 AM CST (1/6) 11:58 PM CST (1/6)
Length of Visible Light 10h 50m
Length of Day
9h 55m
Waxing Crescent, 35% of the Moon is Illuminated
Jan 6
Waxing Crescent
Jan 7
First Quarter
Jan 15
Full
Jan 23
Last Quarter
Jan 30
New

Hourly Weather History & Observations

Time (CST) Temp. Windchill Dew Point Humidity Pressure Visibility Wind Dir Wind Speed Gust Speed Precip Events Conditions
12:53 AM 12.0 °F 5.9 °F 5.0 °F 73% 30.66 in 10.0 mi NNW 3.5 mph - N/A   Mostly Cloudy
1:53 AM 10.9 °F 1.4 °F 5.0 °F 77% 30.68 in 10.0 mi NW 5.8 mph - N/A   Scattered Clouds
2:53 AM 10.0 °F 1.8 °F 3.9 °F 76% 30.69 in 10.0 mi WNW 4.6 mph - N/A   Clear
3:53 AM 9.0 °F -0.9 °F 3.9 °F 80% 30.69 in 10.0 mi WNW 5.8 mph - N/A   Clear
4:53 AM 9.0 °F -2.2 °F 5.0 °F 84% 30.67 in 10.0 mi NW 6.9 mph - N/A   Clear
5:53 AM 10.9 °F -0.8 °F 5.0 °F 77% 30.69 in 10.0 mi NW 8.1 mph - N/A   Clear
6:53 AM 9.0 °F -3.2 °F 3.9 °F 80% 30.71 in 10.0 mi NNW 8.1 mph - N/A   Clear
7:53 AM 8.1 °F -4.3 °F 3.0 °F 80% 30.72 in 10.0 mi North 8.1 mph - N/A   Clear
8:53 AM 12.0 °F -4.0 °F 1.9 °F 64% 30.76 in 10.0 mi North 15.0 mph - N/A   Clear
9:53 AM 14.0 °F 0.5 °F -0.0 °F 54% 30.76 in 10.0 mi North 11.5 mph - N/A   Mostly Cloudy
10:53 AM 18.0 °F 7.7 °F -0.9 °F 44% 30.77 in 10.0 mi North 8.1 mph - N/A   Clear
11:53 AM 21.0 °F - -0.9 °F 38% 30.73 in 10.0 mi Calm Calm - N/A   Clear
12:53 PM 23.0 °F 13.1 °F -0.0 °F 37% 30.69 in 10.0 mi West 9.2 mph - N/A   Partly Cloudy
1:53 PM 25.0 °F 18.1 °F -0.0 °F 34% 30.65 in 10.0 mi Variable 5.8 mph - N/A   Clear
2:53 PM 27.0 °F 16.1 °F 1.9 °F 34% 30.62 in 10.0 mi WSW 12.7 mph - N/A   Clear
3:53 PM 28.0 °F 19.3 °F 3.0 °F 34% 30.60 in 10.0 mi WSW 9.2 mph - N/A   Clear
4:53 PM 28.0 °F 18.1 °F 3.0 °F 34% 30.59 in 10.0 mi WSW 11.5 mph - N/A   Clear
5:53 PM 23.0 °F 12.4 °F 3.9 °F 44% 30.57 in 10.0 mi SW 10.4 mph - N/A   Clear
6:53 PM 21.0 °F 9.9 °F 6.1 °F 53% 30.58 in 10.0 mi SSW 10.4 mph - N/A   Clear
7:53 PM 19.0 °F 8.2 °F 7.0 °F 59% 30.58 in 10.0 mi South 9.2 mph - N/A   Clear
8:53 PM 19.9 °F 6.7 °F 6.1 °F 55% 30.56 in 10.0 mi SSW 13.8 mph - N/A   Clear
9:53 PM 19.9 °F 7.3 °F 6.1 °F 55% 30.55 in 10.0 mi SSW 12.7 mph - N/A   Clear
10:53 PM 19.9 °F 6.7 °F 8.1 °F 60% 30.53 in 10.0 mi SSW 13.8 mph - N/A   Clear
11:53 PM 19.0 °F 6.1 °F 8.1 °F 62% 30.50 in 10.0 mi SSW 12.7 mph - N/A   Clear